Flag for Austria Weather past 2 weeks in Steyr, Upper Austria, Austria

Now
36 °F

Chilly.


Feels Like: 34 °F
Forecast: 32 / 42 °F
Wind: 3 mph from West

Location: Kremsmuenster

Current Time: Mar 5, 2015 at 11:59:39 AM

Latest Report: Mar 5, 2015 at 11:00 AM


Visibility: N/A

Pressure: 30.50 "Hg

Humidity: 77%

Dew point: 30 °F

Location of SteyrLocation

Historic Weather in Steyr — Graph

°F

Steyr temperature yesterday

Maximum temperature yesterday: 44 °F (at 2:00 PM)
Minimum temperature yesterday: 36 °F (at 3:00 AM)
Average temperature yesterday: 39 °F

Past Weeks' High & Low Weather Summary

 TemperatureHumidityPressure
High48 °F (Feb 21, 3:00 PM)100% (Mar 1, 6:00 AM)30.80 "Hg (Mar 1, 6:00 AM)
Low24 °F (Feb 20, 8:00 AM)37% (Mar 3, 4:00 PM)29.53 "Hg (Feb 21, 5:00 PM)
Average37 °F82%30.06 "Hg
* Reported Feb 18 10:00 AM — Mar 5 10:00 AM, Steyr, Weather by CustomWeather, © 2015

Note: Actual official high and low records may vary slightly from our data, if they occured in-between our weather recording intervals... More about our weather records

Advertising

Steyr weather history for previous 24 hours

 ConditionsComfort  
Time TempWeatherWind HumidityBarometerVisibility
10:00 AM
Thu, Mar 5
36 °FOvercast.5 mph82%30.49 "Hg2 mi
9:00 AM36 °FChilly.5 mph81%30.48 "HgN/A
8:00 AM36 °FChilly.2 mph77%30.48 "HgN/A
7:00 AM35 °FOvercast.3 mph78%30.47 "Hg4 mi
6:00 AM35 °FChilly.5 mph78%30.45 "HgN/A
5:00 AM36 °FChilly.5 mph76%30.44 "HgN/A
2:00 AM36 °FChilly.6 mph78%30.44 "HgN/A
1:00 AM36 °FChilly.6 mph77%30.43 "HgN/A
12:00 AM36 °FChilly.5 mph79%30.41 "HgN/A
11:00 PM
Wed, Mar 4
36 °FChilly.5 mph79%30.39 "HgN/A
9:00 PM37 °FChilly.3 mph78%30.37 "HgN/A
8:00 PM38 °FChilly.3 mph75%30.37 "HgN/A
7:00 PM38 °FOvercast.5 mph76%30.36 "Hg10 mi
6:00 PMN/APassing clouds.28 mphN/AN/A2 mi
5:00 PM40 °FQuite cool.3 mph66%30.31 "HgN/A
4:00 PM40 °FPartly sunny.5 mph70%30.31 "Hg11 mi
3:00 PM39 °FChilly.6 mph75%30.32 "HgN/A
2:00 PM44 °FQuite cool.7 mph65%30.30 "HgN/A
1:00 PM41 °FQuite cool.6 mph75%30.32 "HgN/A
12:00 PM40 °FChilly.7 mph78%30.32 "HgN/A
11:00 AM40 °FChilly.8 mph79%30.32 "HgN/A
Weather by CustomWeather, © 2015

See weather overviewHow to use our weather pages